Overview Statistics Trail Chart Weather Telemetry Raw packets
 

This is the latest recevied weather packets stored in our database for station/object SV9TNF-52. If no packets are shown the sender has not sent any weather packets the latest 10 day(s).

<< 1 2 3 4 5 6 7 >>
Time Temp. Humidity Pressure Rain* Wind** Luminosity Snow
1788644874 23.33° C 59% 1022.7 hPa 0 mm 8.05 m/s, 189° - -
1788644574 23.33° C 59% 1022.7 hPa 0 mm 4.02 m/s, 238° - -
1788644274 23.33° C 59% 1022.7 hPa 0 mm 7.6 m/s, 267° - -
1788643973 23.33° C 60% 1022.7 hPa 0 mm 6.71 m/s, 217° - -
1788643673 23.33° C 60% 1022.7 hPa 0 mm 4.92 m/s, 233° - -
1788643374 23.33° C 61% 1022.7 hPa 0 mm 5.81 m/s, 248° - -
1788643073 22.78° C 62% 1022.7 hPa 0 mm 4.47 m/s, 147° - -
1788642774 22.78° C 64% 1022.7 hPa 0 mm 5.81 m/s, 158° - -
1788642473 22.78° C 65% 1022.7 hPa 0 mm 4.92 m/s, 212° - -
1788642173 22.78° C 65% 1022.7 hPa 0 mm 6.71 m/s, 219° - -
1788641873 22.78° C 65% 1022.7 hPa 0 mm 8.05 m/s, 267° - -
1788641573 22.78° C 65% 1022.7 hPa 0 mm 3.58 m/s, 149° - -
1788641273 22.78° C 65% 1022.7 hPa 0 mm 9.83 m/s, 225° - -
1788640973 23.33° C 65% 1022.7 hPa 0 mm 7.15 m/s, 206° - -
1788640673 22.78° C 66% 1022.7 hPa 0 mm 4.47 m/s, 271° - -
1788640372 22.78° C 67% 1022.7 hPa 0 mm 4.92 m/s, 335° - -
1788640072 22.78° C 66% 1022.7 hPa 0 mm 4.92 m/s, 213° - -
1788639772 23.33° C 67% 1022.7 hPa 0 mm 4.92 m/s, 156° - -
1788639472 22.78° C 67% 1022.7 hPa 0 mm 6.71 m/s, 233° - -
1788639172 22.78° C 67% 1022.7 hPa 0 mm 4.92 m/s, 99° - -
1788638872 23.33° C 66% 1022.7 hPa 0 mm 5.81 m/s, 233° - -
1788638572 23.33° C 66% 1022.7 hPa 0 mm 4.02 m/s, 173° - -
1788638272 23.33° C 66% 1022.7 hPa 0 mm 5.81 m/s, 180° - -
1788637972 23.33° C 65% 1022.7 hPa 0 mm 4.47 m/s, 208° - -
1788637672 23.89° C 65% 1022.7 hPa 0 mm 4.92 m/s, 262° - -

* Rain latest hour (hover to see other rain measurements)
** Current wind speed in m/s (hover to see current wind gust speed)